Погода в Азамат-Юрте

Россия / Чеченская Республика     43°25′07″N   46°17′09″E
темп.,
°C
ветер,
м/с
пор.,
м/с
влажн.,
%
обл.,
%
осадки,
мм/ч
давл.,
гПа
погр.,
м
9 мая, вс
вс900:00+11в23955 0.1 101168
03:00+11в3496100 0.1 100979
06:00+13в1292100 0.0 1008108
09:00+19ссз227168 0.0 1008501
12:00+24сз33550 0.0 10061141
15:00+25зсз6647100 0.0 10051870
18:00+14з131878100 0.6 1011836
21:00+9з101688100 3.9 10191154
10 мая, пн
пн1000:00+8з101588100 1.4 10201145
03:00+9зюз91480100 1.6 1021969
06:00+9з81377100 0.1 10201098
09:00+10з71073100 0.9 10221225
12:00+16зсз6104197 0.1 10202523
15:00+16зсз673691 0.1 10192276
18:00+15зюз3548100 0.0 1019195
21:00+11юз596388 0.0 1020253
11 мая, вт
вт1100:00+9зюз3371100 0.0 102063
03:00+7сз22796 0.0 101913
06:00+8юв11745 0.0 102086
09:00+15в69524 0.0 10181356
12:00+18в784198 0.0 10161844
15:00+18в894382 0.0 10161451
18:00+14в610575 0.0 1018732
21:00+9всв4107863 0.0 1018209
12 мая, ср
ср1200:00+8в379114 0.0 1018141
03:00+7в23933 0.0 101840
06:00+10вюв24852 0.0 1018139
09:00+16в45570 0.0 1018985
12:00+20в45471 0.0 10171471
15:00+21в54460 0.0 10171441
18:00+18вюв57610 0.0 1017391
21:00+12вюв35785 0.0 101878
13 мая, чт
чт1300:00+10вюв33855 0.0 101738
03:00+10в228974 0.0 101719
06:00+12в23842 0.0 1017127
09:00+19в33600 0.0 1017624
12:00+24в45480 0.0 1016999
15:00+25в66460 0.0 10151070
18:00+20в47645 0.0 1016434
21:00+13в359080 0.0 101775